Zurück zum Katalog

ONEWEB-0647

AktivKommunikationPO
NORAD 56079·PAYLOAD·🇬🇧 United Kingdom

Gestartet Mar 26, 2023 von Satish Dhawan Space Centre

Loading…

Nächste Überflüge (nächste 24 Stunden)

TLE

AktuellSource: CelesTrak SupGP

Epoche: Sep 15, 2026, 04:30 UTC

1 56079C 23043AK  26258.18764306 -.00000573  00000+0 -15237-2 0  2581
2 56079  87.8983 241.2791 0002222  86.3878 324.0462 13.15547692    11

Verfolge ONEWEB-0647 in Echtzeit mit AllMySat

Download on the App Store